Flag for U.S.A. Weather past 2 weeks in Salina, Kansas, U.S.A.

Now
65 °F

Scattered clouds.


Feels Like: 65 °F
Forecast: 60 / 78 °F
Wind: 5 mph from South

Location: Salina Municipal Airport

Current Time: May 29, 2015 at 9:51:21 AM

Latest Report: May 29, 2015 at 8:53 AM


Visibility: 10 mi

Pressure: 29.93 "Hg

Humidity: 85%

Dew point: 60 °F

Location of SalinaLocation

Historic Weather in Salina — Graph

°F

Salina temperature yesterday

Maximum temperature yesterday: 78 °F (at 3:53 PM)
Minimum temperature yesterday: 64 °F (at 3:53 AM)
Average temperature yesterday: 70 °F

Past Weeks' High & Low Weather Summary

 TemperatureHumidityPressure
High83 °F (May 17, 3:53 PM)96% (May 24, 6:53 AM)30.33 "Hg (May 24, 6:53 AM)
Low42 °F (May 21, 3:53 AM)34% (May 17, 3:53 PM)29.58 "Hg (May 17, 4:53 AM)
Average63 °F75%29.99 "Hg
* Reported May 14 8:53 AM — May 29 8:53 AM, Salina, Weather by CustomWeather, © 2015

Note: Actual official high and low records may vary slightly from our data, if they occured in-between our weather recording intervals... More about our weather records

Advertising

Salina weather history for previous 24 hours

 ConditionsComfort  
Time TempWeatherWind HumidityBarometerVisibility
8:53 AM
Fri, May 29
65 °FScattered clouds.5 mph85%29.93 "Hg10 mi
7:53 AM63 °FPassing clouds.3 mph87%29.93 "Hg10 mi
6:53 AM62 °FPartly cloudy.No wind90%29.93 "Hg10 mi
5:53 AM61 °FPassing clouds.No wind90%29.93 "Hg10 mi
4:53 AM62 °FPassing clouds.3 mph86%29.90 "Hg10 mi
3:53 AM62 °FClear.No wind86%29.88 "Hg10 mi
2:53 AM63 °FClear.8 mph87%29.88 "Hg10 mi
1:53 AM65 °FClear.No wind81%29.88 "Hg10 mi
12:53 AM66 °FPassing clouds.10 mph75%29.90 "Hg10 mi
11:53 PM
Thu, May 28
66 °FPassing clouds.7 mph75%29.93 "Hg10 mi
10:53 PM69 °FOvercast.18 mph66%29.96 "Hg10 mi
9:53 PM71 °FMostly cloudy.5 mph78%29.90 "Hg10 mi
8:53 PM71 °FSunny.5 mph78%29.88 "Hg10 mi
7:53 PM75 °FPartly sunny.9 mph69%29.89 "Hg10 mi
6:53 PM77 °FScattered clouds.16 mph66%29.85 "Hg10 mi
5:53 PM78 °FSunny.14 mph60%29.86 "Hg10 mi
4:53 PM77 °FSunny.20 mph62%29.89 "Hg10 mi
3:53 PM78 °FPassing clouds.18 mph62%29.93 "Hg10 mi
2:53 PM76 °FBroken clouds.10 mph67%29.98 "Hg10 mi
1:53 PM74 °FPartly sunny.17 mph74%30.00 "Hg10 mi
1:00 PM73 °FBroken clouds.15 mph76%30.04 "Hg10 mi
11:53 AM73 °FPartly sunny.18 mph76%30.01 "Hg10 mi
10:53 AM72 °FMostly cloudy.10 mph76%29.99 "Hg10 mi
9:53 AM69 °FOvercast.8 mph84%29.98 "Hg10 mi
Weather by CustomWeather, © 2015

See weather overviewHow to use our weather pages